Hourly Data Report for September 02, 2017

All times are specified in Local Standard Time (LST). Add 1 hour to adjust for Daylight Saving Time where and when it is observed.

QIKIQTARJUAQ A
NUNAVUT

67°32'48.000" N
64°01'54.000" W
5.50 m
2400577
YVM

Related Data

No related data is available for this station

Download Data

Hourly Data (September 2017)
Hourly Data Report for September 2, 2017
Temp Definition
°C
Dew Point Temp Definition
°C
Rel Hum Definition
%
Wind Dir Definition
10's deg

Wind Spd Definition
km/h
Visibility Definition
km
Stn Press Definition
kPa
Hmdx Definition


Wind Chill Definition


Weather Definition


TIME
00:00 Legend Double Dagger 4.2 2.1 86 4 5 16.1 99.86     LegendNANA
01:00 Legend Double Dagger 3.8 2.0 88 2 22 16.1 99.94     LegendNANA
02:00 Legend Double Dagger 3.6 1.8 88 36 28 16.1 100.03     LegendNANA
03:00 Legend Double Dagger 2.9 1.9 93 5 17 16.1 100.13     LegendNANA
04:00 Legend Double Dagger 2.8 1.7 93 2 24 16.1 100.18     LegendNANA
05:00 Legend Double Dagger 3.8 0.9 81 36 26 16.1 100.29     LegendNANA
06:00 Legend Double Dagger 3.0 1.8 92 3 22 16.1 100.39     LegendNANA
07:00 Legend Double Dagger 3.6 1.7 87 2 21 16.1 100.44     LegendNANA
08:00 Legend Double Dagger 4.2 2.0 86 3 17 16.1 100.48     LegendNANA
09:00 Legend Double Dagger 4.1 2.5 89 6 18 16.1 100.52     LegendNANA
10:00 Legend Double Dagger 4.2 2.0 86 3 26 16.1 100.57     LegendNANA
11:00 Legend Double Dagger 4.7 2.3 84 3 21 16.1 100.58     LegendNANA
12:00 Legend Double Dagger 3.8 2.8 93 2 32 16.1 100.64     LegendNANA
13:00 Legend Double Dagger 3.3 2.4 94 3 26 16.1 100.73     LegendNANA
14:00 Legend Double Dagger 3.0 2.0 93 2 28 16.1 100.77     LegendNANA
15:00 Legend Double Dagger 3.1 1.2 87 1 21 16.1 100.85     LegendNANA
16:00 Legend Double Dagger 4.0 0.6 78 7 15 16.1 100.87     LegendNANA
17:00 Legend Double Dagger 3.5 0.8 83 4 21 16.1 100.89     LegendNANA
18:00 Legend Double Dagger 3.0 0.6 84 4 21 16.1 100.93     LegendNANA
19:00 Legend Double Dagger 2.8 0.7 86 4 18 16.1 100.98     LegendNANA
20:00 Legend Double Dagger 2.6 1.0 89 6 15 16.1 101.00     LegendNANA
21:00 Legend Double Dagger 2.7 0.8 87 5 13 16.1 101.02     LegendNANA
22:00 Legend Double Dagger 2.7 0.4 85 9 8 16.1 101.02     LegendNANA
23:00 Legend Double Dagger 2.8 0.1 83 7 5 16.1 101.03     LegendNANA

Notes on Data Quality.

Legend

  • E = Estimated
  • M = Missing
  • NA = Not Available
  • ‡ = Partner data that is not subject to review by the National Climate Archives
Date modified: